星链-5245 (STARLINK-5245 )

导读 | 星芒AI

STARLINK-5245 是 SpaceX 星链计划中的一颗低轨通信卫星,属于第 17 批组网发射的星链卫星之一。该卫星于 2021 年 10 月 31 日由猎鹰 9 号火箭送入近地轨道,主要任务是为全球用户提供高速互联网服务。它运行在约 550 公里的高度,设计寿命为 5 至 7 年。星链卫星采用先进相控阵天线和激光通信技术,支持高速、低延迟的数据传输,助力偏远地区实现网络覆盖。

基本信息
目录编号:
54168
目录名称:
STARLINK-5245
国际标识:
2022-141M
轨道中心:
EARTH
卫星名称:
星链-5245
卫星全名:
星链-5245 (STARLINK-5245 )
卫星状态:
在轨 (已飞行1103 天)
发射日期:
2022-10-28 UTC
国别 :
美国 (US)
星等 :
--
轨道信息
数据来源 国际轨道数据
星历时间: 2025-11-04T17:53:12+0800
10小时前
查看轨道信息
半长轴: 6917.883km
偏心率: 0.0001511
轨道倾角: 53.217°
近地点辐角 87.130°
升交点赤经 206.604°
平近点角 272.987°
近地点: 538.702km
远地点: 540.794km
周期: 95.438分钟
每日圈数: 15.088392
详细信息
固有亮度:
5
最大亮度:
2.5
卫星平台:
Starlink v1.5
覆盖范围:
全球
运营商:
太空探索技术公司
运营商所在国:
美国
制造商(研发单位):
太空探索技术公司
制造商所在国:
美国
使用方式:
暂无
卫星简介
星链(Starlink)计划是由太空探索技术公司(SpaceX)提出的一个巨型低轨卫星互联网星座项目,计划在2019年至2024年间在太空搭建由约1.2万颗卫星组成的“星链”网络,其中1584颗将部署在地球上空550千米处的近地轨道,并从2020年开始工作。该卫星仍在工作。
2D轨道图
3D轨道图
轨道高度分析图
轨道倾角分析图
轨道综合分析图
查看轨道综合分析图